TimeCST,TemperatureF,Dew PointF,Humidity,Sea Level PressureIn,VisibilityMPH,Wind Direction,Wind SpeedMPH,Gust SpeedMPH,PrecipitationIn,Events,Conditions,WindDirDegrees,DateUTC
12:14 AM,39.2,28.4,65,30.26,10.0,SSE,9.2,-,N/A,,Overcast,150,2012-11-14 06:14:00
12:34 AM,39.2,28.4,65,30.26,10.0,SSE,6.9,-,N/A,,Overcast,150,2012-11-14 06:34:00
12:54 AM,39.2,28.4,65,30.26,10.0,SSE,5.8,-,N/A,,Overcast,150,2012-11-14 06:54:00
1:14 AM,39.2,28.4,65,30.25,10.0,SSE,6.9,-,N/A,,Overcast,150,2012-11-14 07:14:00
1:34 AM,39.2,28.4,65,30.25,10.0,SSE,8.1,-,N/A,,Mostly Cloudy,150,2012-11-14 07:34:00
1:54 AM,39.2,28.4,65,30.25,10.0,SSE,6.9,-,N/A,,Overcast,150,2012-11-14 07:54:00
2:14 AM,39.2,28.4,65,30.25,10.0,SE,6.9,-,N/A,,Overcast,140,2012-11-14 08:14:00
2:34 AM,39.2,28.4,65,30.25,10.0,SE,4.6,-,N/A,,Overcast,140,2012-11-14 08:34:00
2:54 AM,39.2,28.4,65,30.26,10.0,SE,3.5,-,N/A,,Overcast,140,2012-11-14 08:54:00
3:14 AM,39.2,30.2,70,30.25,10.0,SE,4.6,-,N/A,,Overcast,140,2012-11-14 09:14:00
3:34 AM,39.2,30.2,70,30.25,10.0,SE,4.6,-,N/A,,Overcast,140,2012-11-14 09:34:00
3:54 AM,39.2,30.2,70,30.25,10.0,SE,3.5,-,N/A,,Overcast,140,2012-11-14 09:54:00
4:14 AM,39.2,30.2,70,30.25,10.0,SE,3.5,-,N/A,,Overcast,140,2012-11-14 10:14:00
4:34 AM,39.2,30.2,70,30.25,10.0,SE,4.6,-,N/A,,Overcast,130,2012-11-14 10:34:00
4:54 AM,39.2,30.2,70,30.25,10.0,SE,4.6,-,N/A,,Overcast,140,2012-11-14 10:54:00
5:14 AM,39.2,30.2,70,30.25,10.0,SSE,3.5,-,N/A,,Overcast,160,2012-11-14 11:14:00
5:34 AM,37.4,30.2,75,30.25,10.0,SE,3.5,-,N/A,,Overcast,140,2012-11-14 11:34:00
5:54 AM,37.4,30.2,75,30.25,10.0,SSE,4.6,-,N/A,,Overcast,150,2012-11-14 11:54:00
6:13 AM,37.4,30.2,75,30.25,10.0,SE,3.5,-,N/A,,Mostly Cloudy,140,2012-11-14 12:13:00
6:34 AM,35.6,28.4,75,30.25,10.0,SSE,3.5,-,N/A,,Mostly Cloudy,150,2012-11-14 12:34:00
6:45 AM,35.6,28.4,75,30.25,10.0,SE,3.5,-,N/A,,Mostly Cloudy,140,2012-11-14 12:45:00
6:54 AM,33.8,28.4,81,30.25,10.0,Calm,Calm,-,N/A,,Scattered Clouds,0,2012-11-14 12:54:00
7:50 AM,33.8,28.4,81,30.25,10.0,Calm,Calm,-,N/A,,Scattered Clouds,0,2012-11-14 13:50:00
8:55 AM,39.2,32.0,75,30.25,10.0,SSE,5.8,-,N/A,,Partly Cloudy,160,2012-11-14 14:55:00
9:50 AM,42.8,32.0,66,30.25,10.0,SSE,4.6,-,N/A,,Mostly Cloudy,150,2012-11-14 15:50:00
10:45 AM,44.6,32.0,61,30.25,10.0,South,5.8,-,N/A,,Mostly Cloudy,170,2012-11-14 16:45:00
11:55 AM,48.2,32.0,54,30.23,10.0,South,5.8,-,N/A,,Mostly Cloudy,170,2012-11-14 17:55:00
12:45 PM,50.0,30.2,47,30.21,10.0,South,5.8,-,N/A,,Mostly Cloudy,180,2012-11-14 18:45:00
1:45 PM,53.6,30.2,41,30.20,10.0,South,9.2,-,N/A,,Mostly Cloudy,180,2012-11-14 19:45:00
2:55 PM,53.6,30.2,41,30.19,10.0,SSW,9.2,-,N/A,,Mostly Cloudy,200,2012-11-14 20:55:00
3:50 PM,51.8,30.2,44,30.19,10.0,South,9.2,-,N/A,,Mostly Cloudy,190,2012-11-14 21:50:00
4:50 PM,48.2,32.0,54,30.17,10.0,SSE,5.8,-,N/A,,Mostly Cloudy,150,2012-11-14 22:50:00
5:50 PM,42.8,33.8,70,30.17,10.0,SE,4.6,-,N/A,,Mostly Cloudy,130,2012-11-14 23:50:00
6:45 PM,44.6,33.8,66,30.16,10.0,SE,5.8,-,N/A,,Mostly Cloudy,130,2012-11-15 00:45:00
7:45 PM,42.8,33.8,70,30.16,10.0,SE,4.6,-,N/A,,Mostly Cloudy,140,2012-11-15 01:45:00
8:50 PM,42.8,33.8,70,30.15,10.0,Calm,Calm,-,N/A,,Mostly Cloudy,0,2012-11-15 02:50:00
9:14 PM,42.8,33.8,70,30.15,10.0,SE,3.5,-,N/A,,Scattered Clouds,140,2012-11-15 03:14:00
9:34 PM,41.0,33.8,76,30.15,10.0,SSE,3.5,-,N/A,,Scattered Clouds,150,2012-11-15 03:34:00
9:54 PM,39.2,33.8,81,30.15,10.0,SSE,5.8,-,N/A,,Mostly Cloudy,160,2012-11-15 03:54:00
10:14 PM,41.0,33.8,76,30.15,10.0,SSE,4.6,-,N/A,,Mostly Cloudy,160,2012-11-15 04:14:00
10:34 PM,41.0,33.8,76,30.15,10.0,SSE,4.6,-,N/A,,Mostly Cloudy,150,2012-11-15 04:34:00
10:54 PM,42.8,35.6,76,30.14,10.0,SE,4.6,-,N/A,,Overcast,130,2012-11-15 04:54:00
11:02 PM,42.8,35.6,76,30.14,10.0,SE,3.5,-,N/A,,Overcast,140,2012-11-15 05:02:00
11:36 PM,42.8,35.6,76,30.14,10.0,SSE,5.8,-,N/A,,Overcast,160,2012-11-15 05:36:00
11:54 PM,42.8,35.6,76,30.13,10.0,South,8.1,-,N/A,,Overcast,170,2012-11-15 05:54:00